Beaumont, TX

12:33 AM CDT on July 25, 2017 (GMT -0500)
Southeast Texas Regional

Weather History for KBPT - November, 2011

Change the Weather History Date:

Saturday, November 12, 2011

  Actual Average Record
Temperature  
Mean Temperature 67 °F 63 °F  
Max Temperature 79 °F 73 °F 85 °F (1964)
Min Temperature 55 °F 53 °F 29 °F (1950)
Degree Days  
Heating Degree Days 0 4  
Month to date heating degree days 53 42  
Since 1 July heating degree days 90 76  
Cooling Degree Days 2 2  
Month to date cooling degree days 36 36  
Year to date cooling degree days 3411 2827  
Growing Degree Days 17 (Base 50)    
Moisture  
Dew Point 56 °F    
Average Humidity 62    
Maximum Humidity 81    
Minimum Humidity 43    
Precipitation  
Precipitation 0.00 in 0.15 in 4.87 in (1929)
Month to date precipitation 0.44 1.82  
Year to date precipitation 26.25 52.60  
Snow  
Snow 0.00 in 0.00 in 0.00 in ()
Month to date snowfall 0.0 0.0  
Since 1 July snowfall 0.0 0.0  
Since 1 September snowfall 0.0 0.0  
Snow Depth 0.00 in    
Sea Level Pressure  
Sea Level Pressure 30.08 in    
Wind  
Wind Speed 10 mph (South)    
Max Wind Speed 24 mph    
Max Gust Speed 30 mph    
Visibility 10 miles    
Events      
T = Trace of Precipitation, MM = Missing Value Source: NWS Daily Summary

Daily Weather History Graph

Daily Weather History Graph

Search for Another Location

Airport or City:

Trip Planner

Search our weather history database for the weather conditions in past years. The results will help you decide how hot, cold, wet, or windy it might be!

Date:

Astronomy

Nov. 12, 2011 Rise Set
Actual Time 6:38 AM CST 5:21 PM CST
Civil Twilight 6:13 AM CST 5:46 PM CST
Nautical Twilight 5:44 AM CST 6:15 PM CST
Astronomical Twilight 5:16 AM CST 6:43 PM CST
Moon 6:46 PM CST (11/12) 8:13 AM CST (11/12)
Length of Visible Light 11h 33m
Length of Day
10h 43m
Full, 97% of the Moon is Illuminated
Nov 12
Full
Nov 18
Last Quarter
Nov 25
New
Dec 2
First Quarter
Dec 10
Full

Hourly Weather History & Observations

Time (CST) Temp. Dew Point Humidity Pressure Visibility Wind Dir Wind Speed Gust Speed Precip Events Conditions
12:53 AM 57.9 °F 50.0 °F 75% 30.15 in 10.0 mi SSW 5.8 mph - N/A   Overcast
1:53 AM 59.0 °F 51.1 °F 75% 30.13 in 10.0 mi South 6.9 mph - N/A   Overcast
2:53 AM 61.0 °F 50.0 °F 67% 30.10 in 10.0 mi South 8.1 mph - N/A   Scattered Clouds
3:53 AM 63.0 °F 51.1 °F 65% 30.11 in 10.0 mi South 6.9 mph - N/A   Overcast
4:53 AM 64.0 °F 51.1 °F 63% 30.10 in 10.0 mi South 8.1 mph - N/A   Overcast
5:53 AM 62.6 °F 51.8 °F 68% 30.10 in 10.0 mi South 5.8 mph - N/A   Overcast
6:53 AM 60.1 °F 51.1 °F 72% 30.11 in 10.0 mi SSE 4.6 mph - N/A   Scattered Clouds
7:53 AM 64.9 °F 53.1 °F 65% 30.12 in 10.0 mi South 5.8 mph - N/A   Scattered Clouds
8:53 AM 70.0 °F 54.0 °F 57% 30.14 in 10.0 mi South 8.1 mph - N/A   Mostly Cloudy
9:53 AM 73.0 °F 53.1 °F 49% 30.15 in 10.0 mi South 10.4 mph - N/A   Scattered Clouds
10:53 AM 75.9 °F 55.0 °F 48% 30.14 in 10.0 mi South 15.0 mph 23.0 mph 0.01 in   Mostly Cloudy
11:53 AM 77.0 °F 54.0 °F 45% 30.12 in 10.0 mi South 15.0 mph 24.2 mph N/A   Scattered Clouds
12:53 PM 75.9 °F 55.0 °F 48% 30.08 in 10.0 mi South 21.9 mph 27.6 mph N/A   Scattered Clouds
1:53 PM 77.0 °F 54.0 °F 45% 30.05 in 10.0 mi South 16.1 mph 25.3 mph N/A   Clear
2:53 PM 77.0 °F 55.9 °F 48% 30.04 in 10.0 mi South 16.1 mph 26.5 mph N/A   Scattered Clouds
3:53 PM 75.0 °F 55.9 °F 51% 30.04 in 10.0 mi South 12.7 mph 25.3 mph N/A   Mostly Cloudy
4:53 PM 73.0 °F 57.9 °F 59% 30.03 in 10.0 mi SSE 13.8 mph - N/A   Overcast
5:53 PM 70.0 °F 60.1 °F 71% 30.02 in 10.0 mi SSE 12.7 mph - N/A   Mostly Cloudy
6:53 PM 70.0 °F 61.0 °F 73% 30.02 in 10.0 mi SSE 9.2 mph - N/A   Mostly Cloudy
7:53 PM 70.0 °F 61.0 °F 73% 30.04 in 10.0 mi South 9.2 mph - N/A   Mostly Cloudy
8:53 PM 69.1 °F 62.1 °F 78% 30.05 in 10.0 mi South 5.8 mph - N/A   Overcast
9:53 PM 68.0 °F 63.0 °F 84% 30.04 in 10.0 mi SSE 8.1 mph - N/A   Scattered Clouds
10:53 PM 68.0 °F 63.0 °F 84% 30.02 in 10.0 mi South 10.4 mph - N/A   Clear
11:53 PM 68.0 °F 63.0 °F 84% 30.00 in 10.0 mi South 12.7 mph - N/A   Clear